Atwater, CA

12:00 PM PST on November 21, 2017 (GMT -0800)
Castle

Weather History for KMER - September, 2013

Change the Weather History Date:

Saturday, September 14, 2013

  Actual Average (KMCE) Record (KMCE)
Temperature  
Mean Temperature 76 °F -  
Max Temperature 93 °F 89 °F 102 °F (2014)
Min Temperature 60 °F 55 °F 46 °F (2005)
Cooling Degree Days 12    
Growing Degree Days 26 (Base 50)    
Moisture  
Dew Point 54 °F    
Average Humidity 57    
Maximum Humidity 77    
Minimum Humidity 21    
Precipitation  
Precipitation 0.00 in - - ()
Sea Level Pressure  
Sea Level Pressure 29.72 in    
Wind  
Wind Speed 5 mph (North)    
Max Wind Speed 15 mph    
Max Gust Speed -    
Visibility 10 miles    
Events      
Averages and records for this station are not official NWS values.
T = Trace of Precipitation, MM = Missing Value Source: NWS Daily Summary

Daily Weather History Graph

Daily Weather History Graph

Search for Another Location

Airport or City:

Trip Planner

Search our weather history database for the weather conditions in past years. The results will help you decide how hot, cold, wet, or windy it might be!

Date:

Astronomy

Sep. 14, 2013 Rise Set
Actual Time 6:43 AM PDT 7:11 PM PDT
Civil Twilight 6:17 AM PDT 7:37 PM PDT
Nautical Twilight 5:46 AM PDT 8:07 PM PDT
Astronomical Twilight 5:15 AM PDT 8:39 PM PDT
Moon 3:52 PM PDT (9/14) 1:26 AM PDT (9/14)
Length of Visible Light 13h 19m
Length of Day
12h 27m
Waxing Gibbous, 73% of the Moon is Illuminated
Sep 14
Waxing Gibbous
Sep 19
Full
Sep 26
Last Quarter
Oct 4
New
Oct 11
First Quarter

Hourly Weather History & Observations

Time (PDT) Temp. Heat Index Dew Point Humidity Pressure Visibility Wind Dir Wind Speed Gust Speed Precip Events Conditions
12:15 AM 71.6 °F - 57.2 °F 60% 29.72 in 10.0 mi North - - N/A   Clear
12:35 AM 69.8 °F - 55.4 °F 60% 29.72 in 10.0 mi North - - N/A   Clear
12:55 AM 69.8 °F - 57.2 °F 64% 29.72 in 10.0 mi Calm Calm - N/A   Clear
1:15 AM 69.8 °F - 55.4 °F 60% 29.72 in 10.0 mi NNW 3.5 mph - N/A   Clear
1:35 AM 69.8 °F - 55.4 °F 60% 29.72 in 10.0 mi North 3.5 mph - N/A   Clear
1:55 AM 66.2 °F - 55.4 °F 68% 29.72 in 10.0 mi NNW 4.6 mph - N/A   Clear
2:15 AM 68.0 °F - 55.4 °F 64% 29.72 in 10.0 mi Calm Calm - N/A   Clear
2:35 AM 66.2 °F - 55.4 °F 68% 29.72 in 10.0 mi North 3.5 mph - N/A   Clear
2:55 AM 66.2 °F - 55.4 °F 68% 29.72 in 10.0 mi NE 3.5 mph - N/A   Clear
3:15 AM 66.2 °F - 55.4 °F 68% 29.72 in 10.0 mi North 5.8 mph - N/A   Clear
3:35 AM 64.4 °F - 55.4 °F 73% 29.72 in 10.0 mi Calm Calm - N/A   Clear
3:55 AM 64.4 °F - 55.4 °F 73% 29.72 in 10.0 mi North - - N/A   Clear
4:15 AM 64.4 °F - 55.4 °F 73% 29.72 in 10.0 mi North - - N/A   Clear
4:35 AM 64.4 °F - 55.4 °F 73% 29.73 in 10.0 mi Calm Calm - N/A   Clear
4:55 AM 64.4 °F - 55.4 °F 73% 29.73 in 10.0 mi North 4.6 mph - N/A   Clear
5:15 AM 62.6 °F - 53.6 °F 72% 29.73 in 10.0 mi North 3.5 mph - N/A   Clear
5:35 AM 62.6 °F - 53.6 °F 72% 29.73 in 10.0 mi North 3.5 mph - N/A   Clear
5:55 AM 62.6 °F - 53.6 °F 72% 29.73 in 10.0 mi North - - N/A   Clear
6:15 AM 62.6 °F - 53.6 °F 72% 29.74 in 10.0 mi North 4.6 mph - N/A   Clear
6:35 AM 62.6 °F - 53.6 °F 72% 29.74 in 10.0 mi North 5.8 mph - N/A   Clear
6:45 AM 60.8 °F - 53.6 °F 77% 29.74 in 10.0 mi Variable 4.6 mph - N/A   Clear
6:55 AM 60.8 °F - 53.6 °F 77% 29.74 in 10.0 mi North 3.5 mph - N/A   Clear
7:45 AM 66.2 °F - 53.6 °F 64% 29.76 in 10.0 mi NNW 6.9 mph - N/A   Clear
8:45 AM 71.6 °F - 51.8 °F 50% 29.76 in 10.0 mi NNW 6.9 mph - N/A   Clear
9:45 AM 77.0 °F - 51.8 °F 41% 29.77 in 10.0 mi NNW 6.9 mph - N/A   Clear
10:45 AM 80.6 °F 80.3 °F 53.6 °F 39% 29.77 in 10.0 mi NNW 8.1 mph - N/A   Clear
11:45 AM 86.0 °F 84.2 °F 53.6 °F 33% 29.76 in 10.0 mi WNW 8.1 mph - N/A   Clear
12:45 PM 89.6 °F - 48.2 °F 24% 29.74 in 10.0 mi WNW 8.1 mph - N/A   Clear
1:45 PM 91.4 °F - 48.2 °F 23% 29.72 in 7.0 mi NW 5.8 mph - N/A   Clear
2:45 PM 93.2 °F - 48.2 °F 21% 29.70 in 7.0 mi North 8.1 mph - N/A   Clear
3:45 PM 93.2 °F - 51.8 °F 24% 29.68 in 7.0 mi NNW 11.5 mph - N/A   Clear
4:45 PM 91.4 °F - 51.8 °F 26% 29.66 in 10.0 mi NW 12.7 mph - N/A   Clear
5:47 PM 89.6 °F 87.3 °F 53.6 °F 29% 29.66 in 10.0 mi NNW 15.0 mph - N/A   Clear
6:59 PM 84.2 °F 83.0 °F 55.4 °F 37% 29.67 in 10.0 mi NNW 6.9 mph - N/A   Clear
7:45 PM 77.0 °F - 59.0 °F 54% 29.67 in 10.0 mi NNW 13.8 mph - N/A   Clear
8:45 PM 75.2 °F - 57.2 °F 53% 29.70 in 10.0 mi NNW 11.5 mph - N/A   Clear
9:15 PM 73.4 °F - 55.4 °F 53% 29.70 in 10.0 mi North 9.2 mph - N/A   Clear
9:35 PM 73.4 °F - 55.4 °F 53% 29.71 in 10.0 mi North 9.2 mph - N/A   Clear
9:55 PM 71.6 °F - 55.4 °F 57% 29.71 in 10.0 mi North 8.1 mph - N/A   Clear
10:15 PM 69.8 °F - 53.6 °F 56% 29.71 in 10.0 mi North 8.1 mph - N/A   Clear
10:35 PM 69.8 °F - 53.6 °F 56% 29.71 in 10.0 mi North - - N/A   Clear
10:55 PM 69.8 °F - 51.8 °F 53% 29.71 in 10.0 mi NNE 6.9 mph - N/A   Clear
11:15 PM 68.0 °F - 51.8 °F 56% 29.72 in 10.0 mi North 6.9 mph - N/A   Clear
11:35 PM 66.2 °F - 51.8 °F 60% 29.72 in 10.0 mi North 8.1 mph - N/A   Clear
11:55 PM 64.4 °F - 51.8 °F 64% 29.72 in 10.0 mi North 8.1 mph - N/A   Clear